METEOR-M2 2

Last updated on Tue Oct 14 2025 00:02:22 GMT+0000 (Coordinated Universal Time)

1 44387U 19038A 25286.60213229 .00000212 00000+0 11177-3 0 9999 2 44387 98.8901 265.6136 0001849 44.0057 316.1268 14.24252989326198
UTC large
Height (km)
Speed (km/s)
/
Latitude / Longitude
Inclination (degrees)
Orbital Period (minutes)
Azimuth
Elevation
Range (km)
Doppler Factor

Next 0 passes for location: London (51.5072 / 0.1276)

Sorry there are no passes over London.